Regional Weather Roundup
Issued by NWS

Home | Current Version | Previous Version | Text Only | Print | Product List | Glossary Off
Versions: 1 2 3 4 5 6 7 8 9 10 11 12 13 14 15 16 17 18 19 20 21 22 23 24 25 26 27 28 29 30 31 32 33 34 35 36 37 38 39 40 41 42 43 44 45 46 47 48 49 50

000
ASUS45 KSLC 032010
RWRUT

UTAH REGIONAL WEATHER ROUNDUP
NATIONAL WEATHER SERVICE SALT LAKE CITY UT
200 PM MDT THU SEP 03 2015

UTZ001>011-023>025-032100-

NORTHERN UTAH

CITY           SKY/WX    TMP DP  RH WIND       PRES   REMARKS
BRIGHAM CITY   MOSUNNY   86  30  13 S20G28    29.86F
HILL AFB       MOSUNNY   84  42  22 S20G30    29.90F
LOGAN          SUNNY     83  37  19 SW21G29   29.86F
OGDEN          MOSUNNY   85  40  20 S22G32    29.87F
PROVO AIRPORT  NOT AVBL
SALT LAKE CITY PTSUNNY   87  39  18 S25G31    29.86F
VERNAL         PTSUNNY   82  43  25 SW7       29.99F
WENDOVER       MOSUNNY   88  36  15 S16G23    29.81F
HEBER CITY     PTSUNNY   81  34  18 SW15      29.98F

$$

UTZ012>022-026-027-032100-

SOUTHERN/CENTRAL UTAH

CITY           SKY/WX    TMP DP  RH WIND       PRES   REMARKS
BLANDING       SUNNY     80  41  25 SW7G16    30.18F
BRYCE CANYON   MOSUNNY   73  39  29 S15G22    30.20F
CEDAR CITY     MOSUNNY   80  33  18 S20G37    30.02F
DELTA          MOSUNNY   84  31  14 S21G35    29.93F
HANKSVILLE     PTSUNNY   88  36  15 SW16G24   29.98F
MILFORD        MOSUNNY   87  30  13 SW30G38   29.95F
MOAB/CYNLANDS  MOSUNNY   87  41  19 SW13G31   29.95F
PRICE          MOSUNNY   82  32  16 S16G28    30.03F
ST GEORGE      MOCLDY    93  39  15 SW21G29   29.87F

$$

REGIONAL REPORTS     COLORADO/ARIZONA

CITY           SKY/WX    TMP DP  RH WIND       PRES   REMARKS
CRAIG, CO      CLOUDY    79  48  33 S20G26    30.08F
GRAND JUNCTION MOSUNNY   78  52  40 SE25G32   30.04F
RIFLE          LGT RAIN  61  57  87 E12       30.16F
MONTROSE       PTSUNNY   69  54  58 SE5       30.17F
CORTEZ         MOSUNNY   80  45  28 VRB6      30.11F
PAGE, AZ       SUNNY     87  37  17 SW7       29.98F
GRAND CANYON   SUNNY     77  38  24 SW15G28   30.18F
KINGMAN        SUNNY     93  33  12 SW23G29   29.94F
FLAGSTAFF      MOSUNNY   71  44  37 SW16      30.23F

$$

REGIONAL REPORTS    NEVADA/IDAHO/WYOMING

CITY           SKY/WX    TMP DP  RH WIND       PRES   REMARKS
LAS VEGAS, NV  MOSUNNY   96  33  11 VRB7G17   29.76F HX  91
ELY            MOSUNNY   76  31  19 S24G35    29.98F
ELKO           SUNNY     80  29  15 W13G21    29.87F
POCATELLO, ID  MOSUNNY   77  39  25 W14G22    29.89F
BURLEY         SUNNY     71  43  36 W9        29.88F
EVANSTON, WY   MOSUNNY   73  29  19 S22G31    30.06F
ROCK SPRINGS   PTSUNNY   76  33  21 SW14G23   30.04F
KEMMERER       PTSUNNY   77  27  15 SW14G25   30.06F

$$



USA.gov is the U.S. government's official web portal to all federal, state and local government web resources and services.